Weather Roundup
Issued by NWS

Home | Current Version | Previous Version | Text Only | Print | Product List | Glossary On
Versions: 1 2 3 4 5 6 7 8 9 10 11 12 13 14 15 16 17 18 19 20 21 22 23 24 25 26 27 28 29 30 31 32 33 34 35 36 37 38 39 40 41 42 43 44 45 46 47 48 49 50
000
NZUS93 KARX 212210
HRRWXR

CURRENT HOURLY OBSERVATIONS ACROSS
MUCH OF THE UPPER MISSISSIPPI VALLEY
NATIONAL WEATHER SERVICE LA CROSSE WI
500 PM CDT WED OCT 21 2020


...SOUTHEAST MINNESOTA...


CITY           SKY/WX    TMP DP  RH WIND       PRES   REMARKS
ROCHESTER      CLOUDY    35  27  72 CALM      30.19F
ROCHESTER/MAYO CLOUDY    36  27  70 SW3       30.19F
WINONA         PTSUNNY   37  28  70 NW5       30.22S WCI  34
AUSTIN         PTSUNNY   39  30  70 CALM      30.19S
ALBERT LEA     PTSUNNY   36  30  80 NE5       30.18F WCI  32
DODGE CENTER   PTSUNNY   34  27  75 W3        30.18F
PRESTON        PTSUNNY   38  30  72 CALM      30.20S
OWATONNA       CLOUDY    34  28  80 CALM      30.20S
FARIBAULT      CLOUDY    34  30  86 CALM      30.19F
$$

...ELSEWHERE IN MINNESOTA...


CITY           SKY/WX    TMP DP  RH WIND       PRES   REMARKS
MINNEAPOLIS    CLOUDY    35  26  69 W7        30.20S WCI  29
INTNL FALLS    CLOUDY    33  27  78 W8        30.07R WCI  26
DULUTH         CLOUDY    33  27  78 W8        30.11R WCI  26
RED WING       PTSUNNY   34  28  80 W5        30.19F WCI  30
REDWOOD FALLS  CLOUDY    32  27  81 S3        30.17F
MANKATO        CLOUDY    34  29  82 CALM      30.20F
WORTHINGTON    PTSUNNY   36  33  89 NE12      30.12S WCI  28
FAIRMONT       PTSUNNY   35  30  82 NE9       30.17F WCI  28
$$

...SOUTHWEST WISCONSIN...


CITY           SKY/WX    TMP DP  RH WIND       PRES   REMARKS
LA CROSSE      PTSUNNY   42  29  59 NW6       30.21R
PRAIRIE DU CHI CLOUDY    48  31  51 CALM      30.19F
BOSCOBEL       PTSUNNY   51  34  52 VRB3      30.19F
LONE ROCK      PTSUNNY   50  36  58 NW6       30.19S
PLATTEVILLE    CLOUDY    49  38  66 N3        30.18F
FORT MC COY    PTSUNNY   40  31  71 W3        30.20S
CAMP DOUGLAS   PTSUNNY   41  36  81 W6        30.19S
MAUSTON-NEW LI MOCLDY    43  33  68 NW5       30.19S
VIROQUA        FAIR      41  34  75 CALM      30.19S
WIS DELLS      PTSUNNY   44  33  65 NW3       30.18F
$$

...ELSEWHERE IN WISCONSIN...


CITY           SKY/WX    TMP DP  RH WIND       PRES   REMARKS
MILWAUKEE      PTCLDY    54  42  64 SE12      30.17S
MADISON        PTSUNNY   52  35  52 N7        30.17S
GREEN BAY      CLOUDY    43  32  65 SW7       30.20R
EAU CLAIRE     CLOUDY    36  26  67 SW6       30.18S WCI  31
BLACK RVR FLS  FAIR      40  28  62 SW3       30.20R
MEDFORD        MOCLDY    33  26  74 SW7       30.15S WCI  27
WAUSAU         CLOUDY    36  28  73 SW6       30.16R WCI  31
WIS RAPIDS     MOCLDY    39  28  64 W5        30.20S
MARSHFIELD     CLOUDY    35  27  72 SW8       30.17S WCI  29
RICE LAKE      PTSUNNY   35  26  70 W7        30.18S WCI  29
$$

...NORTHEAST IOWA...


CITY           SKY/WX    TMP DP  RH WIND       PRES   REMARKS
WATERLOO       PTSUNNY   48  34  58 E7        30.16S
DUBUQUE        CLOUDY    51  39  63 NE5       30.19R
DECORAH        PTSUNNY   43  32  65 CALM      30.17F
MASON CITY     PTSUNNY   43  33  68 NE13      30.16F
CHARLES CITY   PTSUNNY   45  32  61 NE9       30.16F
OELWEIN        MOSUNNY   48  34  57 NE7       30.17S
$$

...ELSEWHERE IN IOWA...


CITY           SKY/WX    TMP DP  RH WIND       PRES   REMARKS
DES MOINES     CLOUDY    47  40  76 E10       30.10F
IOWA CITY      CLOUDY    51  42  71 E9        30.16R
FORT DODGE     PTSUNNY   48  34  58 E13       30.11F
MARSHALLTOWN   CLOUDY    44  40  85 E8        30.12F
CEDAR RAPIDS   CLOUDY    48  40  73 NE8       30.14F
$$

...NORTHERN ILLINOIS...


CITY           SKY/WX    TMP DP  RH WIND       PRES   REMARKS
CHICAGO-OHARE  MOCLDY    56  39  53 E3        30.18R
CHICAGO-MIDWAY MOCLDY    55  43  63 E9        30.18S
MOLINE         CLOUDY    51  45  79 E6        30.14F
ROCKFORD       LGT RAIN  53  38  56 N6        30.22R
PEORIA         CLOUDY    54  44  69 VRB5      30.17R
$$

NOTE: "FAIR" INDICATES FEW OR NO CLOUDS BELOW 12,000 FEET WITH NO
SIGNIFICANT WEATHER AND/OR OBSTRUCTIONS TO VISIBILITY. WIND
SPEEDS ARE IN MILES-PER-HOUR.




USA.gov is the U.S. government's official web portal to all federal, state and local government web resources and services.